Weather History for KELY - April, 2012

Change the Weather History Date:

Wednesday, April 18, 2012

  Actual Average Record
Temperature  
Mean Temperature 47 °F 43 °F  
Max Temperature 59 °F 58 °F 81 °F (1989)
Min Temperature 35 °F 27 °F 12 °F (2002)
Degree Days  
Heating Degree Days 18 22  
Month to date heating degree days 404 433  
Since 1 July heating degree days 6059 6660  
Cooling Degree Days 0 0  
Month to date cooling degree days 0 0  
Year to date cooling degree days 0 0  
Growing Degree Days 1 (Base 50)    
Moisture  
Dew Point 31 °F    
Average Humidity 53    
Maximum Humidity 70    
Minimum Humidity 35    
Precipitation  
Precipitation 0.01 in 0.03 in 0.47 in (1981)
Month to date precipitation 0.71 0.56  
Year to date precipitation 3.44 2.94  
Snow  
Snow 0.00 in 0.20 in 3.30 in (1971)
Month to date snowfall 4.2 3.6  
Since 1 July snowfall 51.3 46.8  
Snow Depth 0.00 in    
Sea Level Pressure  
Sea Level Pressure 29.92 in    
Wind  
Wind Speed 7 mph (WNW)    
Max Wind Speed 17 mph    
Max Gust Speed 26 mph    
Visibility 10 miles    
Events Rain    
T = Trace of Precipitation, MM = Missing Value Source: NWS Daily Summary

Daily Weather History Graph

Daily Weather History Graph

Search for Another Location

Airport or City:

Trip Planner

Search our weather history database for the weather conditions in past years. The results will help you decide how hot, cold, wet, or windy it might be!

Date:

Astronomy

Apr. 18, 2012 Rise Set
Actual Time 5:57 AM PDT 7:20 PM PDT
Civil Twilight 5:29 AM PDT 7:48 PM PDT
Nautical Twilight 4:55 AM PDT 8:22 PM PDT
Astronomical Twilight 4:20 AM PDT 8:57 PM PDT
Moon 4:23 AM PDT (4/18) 5:15 PM PDT (4/18)
Length of Visible Light 14h 19m
Length of Day
13h 23m
Waning Crescent, 6% of the Moon is Illuminated
Apr 18
Waning Crescent
Apr 21
New
Apr 29
First Quarter
May 5
Full
May 12
Last Quarter

Hourly Weather History & Observations

Time (PDT) Temp. Windchill Dew Point Humidity Pressure Visibility Wind Dir Wind Speed Gust Speed Precip Events Conditions
12:53 AM 45.0 °F 39.7 °F 30.0 °F 56% 29.91 in 10.0 mi SSW 10.4 mph - N/A   Scattered Clouds
1:53 AM 46.0 °F 41.0 °F 28.9 °F 51% 29.88 in 10.0 mi SSW 10.4 mph - N/A   Clear
2:53 AM 45.0 °F 39.3 °F 28.9 °F 53% 29.86 in 10.0 mi SSW 11.5 mph - N/A   Clear
3:53 AM 46.9 °F - 28.9 °F 50% 29.86 in 10.0 mi South 15.0 mph - N/A   Overcast
5:53 AM 44.1 °F - 30.9 °F 60% 29.89 in 10.0 mi Calm Calm - N/A   Mostly Cloudy
6:53 AM 46.9 °F - 30.0 °F 52% 29.92 in 10.0 mi WNW 5.8 mph - N/A   Overcast
7:53 AM 51.1 °F - 28.0 °F 41% 29.94 in 10.0 mi WNW 15.0 mph - N/A   Overcast
8:53 AM 51.1 °F - 30.0 °F 44% 29.96 in 10.0 mi NNE 8.1 mph - N/A   Overcast
9:53 AM 53.1 °F - 30.0 °F 41% 29.96 in 10.0 mi NNE 11.5 mph 16.1 mph N/A   Overcast
10:53 AM 55.0 °F - 28.0 °F 35% 29.95 in 10.0 mi Variable 5.8 mph - N/A   Scattered Clouds
11:53 AM 55.9 °F - 28.9 °F 36% 29.95 in 10.0 mi WNW 6.9 mph - N/A   Overcast
12:53 PM 51.1 °F - 34.0 °F 52% 30.00 in 10.0 mi West 16.1 mph 19.6 mph 0.00 in Rain Light Rain
1:53 PM 50.0 °F - 36.0 °F 59% 29.99 in 10.0 mi NW 4.6 mph - 0.00 in   Overcast
2:53 PM 54.0 °F - 36.0 °F 51% 29.95 in 10.0 mi Variable 3.5 mph - 0.01 in   Clear
3:53 PM 57.0 °F - 34.0 °F 42% 29.90 in 10.0 mi SE 4.6 mph - N/A   Mostly Cloudy
4:53 PM 57.9 °F - 32.0 °F 37% 29.90 in 10.0 mi Calm Calm - N/A   Overcast
5:53 PM 57.9 °F - 30.0 °F 35% 29.88 in 10.0 mi NNW 8.1 mph - N/A   Mostly Cloudy
6:53 PM 57.0 °F - 30.9 °F 37% 29.86 in 10.0 mi NNE 8.1 mph - N/A   Scattered Clouds
7:53 PM 51.1 °F - 32.0 °F 48% 29.89 in 10.0 mi WNW 5.8 mph - N/A   Scattered Clouds
8:53 PM 48.0 °F - 32.0 °F 54% 29.92 in 10.0 mi WNW 5.8 mph - N/A   Mostly Cloudy
9:53 PM 46.9 °F - 30.9 °F 54% 29.94 in 10.0 mi WNW 8.1 mph - N/A   Mostly Cloudy
10:53 PM 46.9 °F - 32.0 °F 56% 29.93 in 10.0 mi Calm Calm - N/A   Partly Cloudy
11:53 PM 43.0 °F - 33.1 °F 68% 29.95 in 10.0 mi Calm Calm - N/A   Partly Cloudy